DateTimeUTC,F1_A11,F1_S11,BsB_S11,BsG_S11,BsR_S11,BbsB_S11,BbsG_S11,BbsR_S11,BaB_A11,BaG_A11,BaR_A11,Tu_S11,T_S11,Uu_S11,U_S11,P_S11,T1_A11
2021-07-19T05:00:00Z,00000200,20000000,,,,,,,-000.29,0000.08,-000.30,18.7,25.2,14.0,09.4,0674.6,31.1
2021-07-19T05:01:00Z,00000200,20000000,,,,,,,0000.19,-000.12,0000.16,18.7,25.2,14.0,09.4,0674.6,31.0
2021-07-19T05:02:00Z,00000200,20000000,,,,,,,-000.18,0000.01,-000.05,18.7,25.2,13.9,09.4,0674.6,31.0
2021-07-19T05:03:00Z,00000200,60000000,,,,,,,0001.67,0001.45,0000.75,18.7,25.2,13.7,09.2,0674.6,31.1
2021-07-19T05:04:00Z,00000200,40000000,0009.79,0008.00,0004.95,0001.12,0001.32,0000.97,0002.30,0001.91,0001.82,18.7,25.0,13.7,09.4,0675.5,31.1
2021-07-19T05:05:00Z,00000200,00000000,0011.36,0008.11,0004.79,0001.50,0000.91,0001.08,0002.26,0002.37,0001.74,18.7,25.0,13.8,09.4,0675.5,31.0
2021-07-19T05:06:00Z,00000200,00000000,0010.73,0007.60,0005.03,0000.87,0001.11,0000.89,0002.44,0002.10,0001.62,18.7,24.9,13.8,09.4,0675.5,31.0
2021-07-19T05:07:00Z,00000200,00000000,0010.52,0008.21,0005.09,0001.25,0001.12,0000.87,0002.40,0002.47,0001.90,18.7,24.9,13.6,09.4,0675.5,31.1
2021-07-19T05:08:00Z,00000200,00000000,0010.48,0008.15,0005.38,0001.58,0001.14,0000.82,0002.19,0001.76,0001.58,18.7,24.9,13.7,09.4,0675.5,31.0
2021-07-19T05:09:00Z,00000200,00000000,0011.20,0008.51,0005.28,0002.18,0001.02,0000.62,0002.21,0002.33,0001.44,18.7,24.9,13.6,09.3,0675.5,31.0
2021-07-19T05:10:00Z,00000200,00000000,0011.38,0008.18,0005.16,0001.42,0000.89,0000.62,0002.15,0002.11,0001.66,18.7,24.9,13.5,09.2,0675.5,31.0
2021-07-19T05:11:00Z,00000200,00000000,0011.53,0007.46,0004.50,0001.44,0001.16,0000.51,0002.43,0001.91,0001.50,18.7,24.9,13.4,09.2,0675.5,31.0
2021-07-19T05:12:00Z,00000200,00000000,0009.91,0007.55,0004.82,0001.61,0000.89,0000.82,0002.06,0001.82,0001.59,18.7,24.9,13.4,09.2,0675.5,31.0
2021-07-19T05:13:00Z,00000200,00000000,0010.19,0007.74,0004.76,0001.53,0001.12,0000.47,0002.01,0002.02,0001.30,18.7,24.9,13.5,09.3,0675.6,31.0
2021-07-19T05:14:00Z,00000200,00000000,0010.34,0007.61,0004.47,0000.75,0001.16,0000.83,0002.17,0002.01,0001.50,18.7,24.9,13.5,09.2,0675.6,31.0
2021-07-19T05:15:00Z,00000200,00000000,0009.44,0007.09,0004.34,0001.44,0000.77,0001.02,0002.07,0001.81,0001.68,18.7,24.9,13.3,09.2,0675.5,31.0
2021-07-19T05:16:00Z,00000200,00000000,0010.13,0007.09,0004.61,0001.42,0001.14,0000.54,0001.83,0001.63,0001.24,18.7,24.9,13.3,09.2,0675.5,31.0
2021-07-19T05:17:00Z,00000200,00000000,0010.03,0007.42,0004.79,0001.99,0000.89,0000.89,0002.03,0002.39,0001.49,18.7,24.9,13.2,09.1,0675.5,31.0
2021-07-19T05:18:00Z,00000200,00000000,0010.29,0007.14,0004.73,0001.68,0000.93,0000.49,0002.27,0001.50,0001.38,18.7,24.9,13.2,09.1,0675.5,31.0
2021-07-19T05:19:00Z,00000200,00000000,0009.19,0007.12,0004.56,0001.40,0001.04,0000.67,0002.22,0002.11,0001.58,18.7,24.9,13.3,09.1,0675.6,31.0
2021-07-19T05:20:00Z,00000200,00000000,0009.69,0007.33,0004.66,0002.29,0001.24,0000.65,0002.13,0001.71,0001.61,18.8,24.9,13.2,09.1,0675.5,31.0
2021-07-19T05:21:00Z,00000200,00000000,0009.37,0007.02,0005.00,0001.55,0001.04,0000.72,0001.85,0001.88,0001.02,18.8,24.9,13.2,09.1,0675.6,31.1
2021-07-19T05:22:00Z,00000200,00000000,0008.92,0006.61,0004.50,0001.29,0001.21,0000.80,0001.80,0002.01,0001.78,18.8,25.0,13.1,09.0,0675.6,31.1
2021-07-19T05:23:00Z,00000200,00000000,0010.23,0007.15,0004.63,0002.16,0001.32,0000.85,0001.97,0001.67,0001.01,18.9,25.0,13.1,09.0,0675.6,31.0
2021-07-19T05:24:00Z,00000200,00000000,0010.35,0007.06,0004.32,0001.06,0001.07,0000.72,0002.34,0001.94,0001.54,18.9,25.0,13.0,09.0,0675.6,31.1
2021-07-19T05:25:00Z,00000200,00000000,0010.29,0006.96,0004.58,0001.18,0001.02,0000.40,0001.79,0001.67,0001.56,18.9,25.0,12.9,08.9,0675.6,31.1
2021-07-19T05:26:00Z,00000200,00000000,0008.87,0006.74,0004.45,0001.31,0000.94,0000.35,0002.22,0002.20,0001.65,18.9,24.9,13.0,09.0,0675.6,31.0
2021-07-19T05:27:00Z,00000200,00000000,0010.20,0007.31,0004.64,0001.77,0001.08,0000.52,0002.22,0001.92,0001.23,18.9,24.9,13.0,09.0,0675.6,31.0
2021-07-19T05:28:00Z,00000200,00000000,0008.77,0006.60,0004.35,0001.07,0000.96,0000.68,0001.96,0001.83,0001.45,18.9,25.0,13.0,09.0,0675.6,31.1
2021-07-19T05:29:00Z,00000200,00000000,0009.44,0006.84,0004.20,0002.14,0000.94,0000.78,0002.09,0001.73,0001.58,18.8,24.9,13.0,09.0,0675.6,31.0
2021-07-19T05:30:00Z,00000200,00000000,0008.87,0006.47,0004.15,0001.09,0000.70,0000.92,0002.01,0001.95,0001.21,18.8,24.9,13.0,08.9,0675.6,31.0
2021-07-19T05:31:00Z,00000200,00000000,0009.50,0006.42,0004.49,0000.86,0000.98,0000.97,0001.93,0001.61,0001.41,18.8,24.9,13.0,08.9,0675.6,31.0
2021-07-19T05:32:00Z,00000200,00000000,0009.21,0006.45,0004.18,0001.41,0001.32,0000.48,0001.89,0001.94,0001.24,18.8,24.9,13.0,09.0,0675.6,31.1
2021-07-19T05:33:00Z,00000200,00000000,0008.30,0006.50,0004.38,0001.80,0000.75,0000.92,0002.00,0002.10,0001.70,18.8,24.9,13.0,08.9,0675.6,31.0
2021-07-19T05:34:00Z,00000200,00000000,0008.70,0006.75,0004.16,0001.60,0001.13,0000.52,0001.90,0001.08,0001.06,18.8,24.9,12.9,08.9,0675.6,31.0
2021-07-19T05:35:00Z,00000200,00000000,0008.73,0005.55,0003.65,0001.81,0000.79,0000.59,0001.49,0001.32,0001.25,18.8,24.9,12.8,08.8,0675.6,31.0
2021-07-19T05:36:00Z,00000200,00000000,0007.90,0005.29,0003.52,0001.36,0000.97,0000.57,0001.60,0001.99,0001.15,18.8,24.9,12.7,08.7,0675.6,31.0
2021-07-19T05:37:00Z,00000200,00000000,0007.16,0005.15,0003.31,0001.11,0000.81,0000.70,0001.10,0001.15,0000.93,18.8,24.9,12.6,08.7,0675.6,31.1
2021-07-19T05:38:00Z,00000200,00000000,0007.33,0005.30,0003.13,0001.12,0000.51,0000.30,0001.37,0000.91,0000.80,18.8,24.9,12.5,08.6,0675.6,31.0
2021-07-19T05:39:00Z,00000200,00000000,0006.59,0004.54,0002.71,0000.87,0000.86,0000.84,0001.45,0001.45,0001.07,18.8,24.9,12.6,08.6,0675.5,31.0
2021-07-19T05:40:00Z,00000200,00000000,0005.40,0004.00,0002.57,0001.05,0000.59,0000.52,0000.99,0000.64,0000.69,18.8,24.9,12.7,08.7,0675.5,31.0
2021-07-19T05:41:00Z,00000200,00000000,0005.34,0003.58,0002.31,0000.94,0001.02,0000.37,0001.13,0001.18,0000.86,18.8,24.9,12.6,08.7,0675.5,31.0
2021-07-19T05:42:00Z,00000200,00000000,0005.26,0003.95,0002.78,0000.91,0000.92,0000.35,0001.00,0001.04,0000.74,18.8,24.9,12.6,08.6,0675.5,31.0
2021-07-19T05:43:00Z,00000200,00000000,0005.35,0003.75,0001.97,0000.96,0000.61,0000.37,0001.15,0001.06,0000.47,18.8,24.9,12.4,08.6,0675.5,31.0
2021-07-19T05:44:00Z,00000200,00000000,0004.90,0003.77,0002.21,0000.39,0000.56,0000.74,0000.75,0000.86,0000.54,18.8,24.9,12.3,08.4,0675.5,31.0
2021-07-19T05:45:00Z,00000200,00000000,0005.17,0003.51,0002.06,0001.43,0000.60,0000.43,0001.07,0000.59,0001.16,18.8,24.9,12.3,08.5,0675.5,31.0
2021-07-19T05:46:00Z,00000200,00000000,0004.46,0003.71,0001.90,0000.88,0000.64,0000.31,0001.10,0001.23,0000.58,18.8,24.9,12.5,08.6,0675.5,31.0
2021-07-19T05:47:00Z,00000200,00000000,0004.12,0003.43,0002.30,0001.32,0000.51,0000.57,0000.96,0000.94,0000.54,18.7,24.9,12.4,08.5,0675.5,31.1
2021-07-19T05:48:00Z,00000200,00000000,0005.05,0003.36,0002.13,0000.72,0000.85,0000.44,0001.28,0000.96,0000.80,18.8,24.9,12.5,08.6,0675.5,31.0
2021-07-19T05:49:00Z,00000200,00000000,0004.68,0003.58,0001.97,0000.85,0000.60,0000.30,0000.91,0000.77,0000.85,18.7,24.9,12.5,08.6,0675.5,31.0
2021-07-19T05:50:00Z,00000200,00000000,0005.35,0003.14,0002.25,0000.52,0000.54,0000.36,0000.95,0000.65,0000.39,18.7,24.9,12.3,08.5,0675.5,31.1
2021-07-19T05:51:00Z,00000200,00000000,0005.30,0003.20,0002.37,0001.38,0001.14,0000.18,0000.69,0000.74,-000.02,18.7,24.9,11.9,08.2,0675.5,31.0
2021-07-19T05:52:00Z,00000200,00000000,0003.64,0003.19,0001.71,0000.87,0000.68,0000.13,0000.69,0000.65,0001.04,18.7,24.9,11.8,08.1,0675.5,31.0
2021-07-19T05:53:00Z,00000200,00000000,0003.91,0003.39,0001.74,0000.87,0000.50,0000.05,0001.19,0000.94,0000.79,18.7,24.9,12.1,08.3,0675.5,31.0
2021-07-19T05:54:00Z,00000200,00000000,0003.95,0002.84,0002.16,0000.49,0000.75,0000.54,0000.83,0001.09,0000.81,18.7,24.8,12.0,08.3,0675.5,31.0
2021-07-19T05:55:00Z,00000200,00000000,0003.98,0003.22,0001.83,0000.36,0000.56,0000.51,0000.72,0000.64,0000.49,18.7,24.9,12.0,08.3,0675.5,31.0
2021-07-19T05:56:00Z,00000200,00000000,0004.49,0003.10,0001.82,0001.24,0000.74,0000.33,0001.15,0001.32,0000.87,18.7,24.9,12.2,08.4,0675.5,31.0
2021-07-19T05:57:00Z,00000200,40000000,,,,,,,0000.51,0000.33,0000.27,18.8,24.9,12.3,08.5,0675.6,31.0
2021-07-19T05:58:00Z,00000200,60000000,,,,,,,0000.00,-000.10,-000.19,18.6,25.0,12.6,08.5,0674.5,31.0
2021-07-19T05:59:00Z,00000200,20000000,,,,,,,-000.25,-000.18,-000.23,18.5,25.1,12.6,08.4,0674.5,31.1
